Weather History for Cairo, Egypt

Change the Weather History Date:

Friday, January 24, 2014

  Actual Average Record
Temperature  
Mean Temperature 60 °F -  
Max Temperature 68 °F 66 °F 78 °F (2000)
Min Temperature 52 °F 49 °F 46 °F (2002)
Degree Days  
Heating Degree Days 5    
Growing Degree Days 10 (Base 50)    
Moisture  
Dew Point 46 °F    
Average Humidity 56    
Maximum Humidity 79    
Minimum Humidity 34    
Precipitation  
Precipitation 0.00 in 0.01 in - ()
Sea Level Pressure  
Sea Level Pressure 30.08 in    
Wind  
Wind Speed 6 mph ()    
Max Wind Speed 13 mph    
Max Gust Speed -    
Visibility 5.8 miles    
Events      
Averages and records for this station are not official NWS values.
T = Trace of Precipitation, MM = Missing Value Source: Averaged Metar Reports

Daily Weather History Graph

Daily Weather History Graph

Search for Another Location

Airport:

Trip Planner

Search our weather history database for the weather conditions in past years. The results will help you decide how hot, cold, wet, or windy it might be!

Date:

Astronomy

Jan. 24, 2014 Rise Set
Actual Time 6:48 AM EET 5:24 PM EET
Civil Twilight 6:23 AM EET 5:49 PM EET
Nautical Twilight 5:54 AM EET 6:18 PM EET
Astronomical Twilight 5:25 AM EET 6:47 PM EET
Moon 12:02 AM EET (1/24) 11:24 AM EET (1/24)
Length of Visible Light 11h 26m
Length of Day
10h 35m
Waning Gibbous, 48% of the Moon is Illuminated
Jan 24
Waning Gibbous
Jan 30
New
Feb 6
First Quarter
Feb 15
Full
Feb 22
Last Quarter

Hourly Weather History & Observations

Time (EET) Temp. Dew Point Humidity Pressure Visibility Wind Dir Wind Speed Gust Speed Precip Events Conditions
12:00 AM 53.6 °F 46.4 °F 77% 30.15 in - ENE 3.5 mph - N/A   Clear
12:30 AM 53.6 °F 46.4 °F 77% 30.15 in - ENE 3.5 mph - N/A   Clear
1:00 AM 53.6 °F 46.4 °F 77% 30.15 in - East 5.8 mph - N/A   Clear
1:30 AM 53.6 °F 46.4 °F 77% 30.15 in - East 5.8 mph - N/A   Clear
2:00 AM 54 °F 47 °F 68% 30.14 in 6 mi East 6.9 mph - -  
2:00 AM 53.6 °F 46.4 °F 77% 30.15 in - East 6.9 mph - N/A   Clear
5:00 AM 52 °F 47 °F 79% 30.14 in 4 mi East 4.6 mph - -   Mist
8:00 AM 55 °F 50 °F 79% 30.18 in 6 mi East 8.1 mph - -  
11:00 AM 64 °F 47 °F 44% 30.14 in 6 mi NE 11.5 mph - -  
12:00 PM 66.2 °F 46.4 °F 49% 30.12 in - ENE 12.7 mph - N/A   Clear
12:30 PM 66.2 °F 44.6 °F 46% 30.09 in - NE 12.7 mph - N/A   Clear
1:00 PM 66.2 °F 46.4 °F 49% 30.09 in - NE 10.4 mph - N/A   Clear
1:30 PM 68.0 °F 44.6 °F 43% 30.06 in - NE 11.5 mph - N/A   Clear
2:00 PM 68 °F 46 °F 34% 30.06 in 6 mi NE 10.4 mph - -  
2:00 PM 68.0 °F 46.4 °F 46% 30.06 in - NE 10.4 mph - N/A   Clear
2:30 PM 68.0 °F 46.4 °F 46% 30.06 in - NNE 10.4 mph - N/A   Clear
3:00 PM 68.0 °F 44.6 °F 43% 30.06 in - NNE 10.4 mph - N/A   Clear
3:30 PM 68.0 °F 44.6 °F 43% 30.04 in - NE 10.4 mph - N/A   Clear
4:00 PM 68.0 °F 44.6 °F 43% 30.04 in - NE 10.4 mph - N/A   Clear
4:30 PM 68.0 °F 44.6 °F 43% 30.04 in - NE 9.2 mph - N/A   Clear
5:00 PM 67 °F 47 °F 38% 30.05 in 6 mi ENE 11.5 mph - -  
5:00 PM 68.0 °F 48.2 °F 49% 30.04 in - ENE 11.5 mph - N/A   Clear
5:30 PM 68.0 °F 48.2 °F 49% 30.04 in - ENE 11.5 mph - N/A   Clear
6:00 PM 64.4 °F 46.4 °F 52% 30.04 in - ENE 8.1 mph - N/A   Clear
6:30 PM 64.4 °F 46.4 °F 52% 30.06 in - ENE 8.1 mph - N/A   Clear
7:00 PM 62.6 °F 46.4 °F 55% 30.06 in - NE 4.6 mph - N/A   Clear
7:30 PM 60.8 °F 46.4 °F 59% 30.06 in - ENE 3.5 mph - N/A   Clear
8:00 PM 61 °F 46 °F 47% 30.09 in 6 mi ENE 3.5 mph - -  
8:00 PM 60.8 °F 46.4 °F 59% 30.06 in - ENE 3.5 mph - N/A   Clear
8:30 PM 60.8 °F 46.4 °F 59% 30.06 in - East 4.6 mph - N/A   Clear
9:00 PM 60.8 °F 44.6 °F 55% 30.06 in - East 3.5 mph - N/A   Clear
9:30 PM 60.8 °F 44.6 °F 55% 30.06 in - East 3.5 mph - N/A   Clear
10:00 PM 59.0 °F 44.6 °F 59% 30.04 in - East 5.8 mph - N/A   Clear
10:30 PM 59.0 °F 44.6 °F 59% 30.06 in - NNE 3.5 mph - N/A   Clear
11:00 PM 58 °F 45 °F 52% 30.07 in 6 mi North 3.5 mph - -  
11:00 PM 57.2 °F 44.6 °F 63% 30.04 in - North 3.5 mph - N/A   Clear
11:30 PM 55.4 °F 44.6 °F 67% 30.04 in - North 3.5 mph - N/A   Clear